Hayward, WI

1:33 AM CST on November 20, 2019 (GMT -0600)
Sawyer County

Weather History for KHYR - September, 2019

Change the Weather History Date:

Monday, September 9, 2019

  Actual Average Record
Temperature  
Mean Temperature 54 °F -  
Max Temperature 64 °F 78 °F 84 °F (2000)
Min Temperature 46 °F 42 °F 30 °F (2006)
Degree Days  
Heating Degree Days 11    
Growing Degree Days 4 (Base 50)    
Moisture  
Dew Point 53 °F    
Average Humidity 85    
Maximum Humidity 94    
Minimum Humidity 70    
Precipitation  
Precipitation 0.21 in - - ()
Sea Level Pressure  
Sea Level Pressure 30.05 in    
Wind  
Wind Speed 6 mph (ESE)    
Max Wind Speed 16 mph    
Max Gust Speed 26 mph    
Visibility 8 miles    
Events Rain    
Averages and records for this station are not official NWS values.
T = Trace of Precipitation, MM = Missing Value Source: NWS Daily Summary

Daily Weather History Graph

Daily Weather History Graph

Search for Another Location

Airport or City:

Astronomy

Sep. 09, 2019 Rise Set
Actual Time 6:36 AM CDT 7:29 PM CDT
Civil Twilight 6:05 AM CDT 7:59 PM CDT
Nautical Twilight 5:29 AM CDT 8:35 PM CDT
Astronomical Twilight 4:51 AM CDT 9:13 PM CDT
Moon 5:39 PM CDT (9/9) 1:51 AM CDT (9/9)
Length of Visible Light 13h 53m
Length of Day
12h 53m
Waxing Gibbous, 83% of the Moon is Illuminated
Sep 9
Waxing Gibbous
Sep 13
Full
Sep 21
Last Quarter
Sep 28
New
Oct 5
First Quarter

Hourly Weather History & Observations

Time (CDT) Temp. Dew Point Humidity Pressure Visibility Wind Dir Wind Speed Gust Speed Precip Events Conditions
12:53 AM 46.9 °F 45.0 °F 93% 30.22 in 10.0 mi Calm Calm - N/A   Partly Cloudy
1:53 AM 46.9 °F 45.0 °F 93% 30.23 in 10.0 mi Calm Calm - N/A   Mostly Cloudy
2:53 AM 51.1 °F 48.0 °F 89% 30.22 in 10.0 mi NNE 3.5 mph - N/A   Overcast
3:53 AM 53.1 °F 48.9 °F 86% 30.22 in 10.0 mi Calm Calm - N/A   Overcast
4:53 AM 53.1 °F 48.0 °F 83% 30.19 in 10.0 mi Variable 3.5 mph - N/A   Overcast
5:53 AM 54.0 °F 48.0 °F 80% 30.21 in 10.0 mi Calm Calm - N/A   Overcast
6:53 AM 54.0 °F 48.9 °F 83% 30.21 in 10.0 mi East 5.8 mph - N/A   Overcast
7:53 AM 53.1 °F 48.0 °F 83% 30.20 in 10.0 mi East 6.9 mph - N/A   Overcast
8:53 AM 55.0 °F 48.0 °F 77% 30.20 in 10.0 mi ESE 5.8 mph - N/A   Overcast
9:53 AM 55.9 °F 48.9 °F 77% 30.19 in 10.0 mi ESE 9.2 mph 18.4 mph N/A   Overcast
10:53 AM 57.9 °F 48.9 °F 72% 30.18 in 10.0 mi Variable 6.9 mph - N/A   Overcast
11:53 AM 61.0 °F 51.1 °F 70% 30.17 in 10.0 mi East 9.2 mph - N/A   Overcast
12:53 PM 61.0 °F 51.1 °F 70% 30.15 in 10.0 mi ESE 10.4 mph - N/A   Overcast
1:53 PM 61.0 °F 51.1 °F 70% 30.13 in 10.0 mi ESE 10.4 mph 20.7 mph N/A   Overcast
2:22 PM 59.0 °F 53.1 °F 81% 30.10 in 1.8 mi ESE 10.4 mph 19.6 mph 0.00 in Rain Light Rain
2:32 PM 57.9 °F 53.1 °F 84% 30.09 in 3.0 mi ESE 8.1 mph 17.3 mph 0.00 in Rain Light Rain
2:53 PM 59.0 °F 53.1 °F 81% 30.09 in 10.0 mi East 9.2 mph - 0.00 in Rain Light Rain
3:36 PM 59.0 °F 54.0 °F 83% 30.05 in 10.0 mi East 8.1 mph 16.1 mph 0.03 in   Overcast
3:53 PM 59.0 °F 54.0 °F 83% 30.06 in 10.0 mi ESE 8.1 mph - 0.03 in   Overcast
4:53 PM 59.0 °F 54.0 °F 83% 30.01 in 10.0 mi ESE 9.2 mph 19.6 mph 0.00 in Rain Light Rain
5:43 PM 59.0 °F 54.0 °F 83% 29.99 in 10.0 mi SE 6.9 mph 18.4 mph 0.00 in   Overcast
5:53 PM 59.0 °F 55.0 °F 87% 30.00 in 10.0 mi Variable 5.8 mph 19.6 mph 0.00 in   Overcast
6:48 PM 57.2 °F 55.4 °F 94% 29.95 in 2.5 mi SE 10.4 mph 19.6 mph 0.06 in Rain Rain
6:53 PM 59.0 °F 55.0 °F 87% 29.96 in 3.0 mi SE 9.2 mph 19.6 mph 0.06 in Rain Light Rain
7:17 PM 59.0 °F 55.9 °F 90% 29.94 in 2.0 mi SE 9.2 mph 17.3 mph 0.02 in Rain Rain
7:31 PM 59.0 °F 55.9 °F 90% 29.94 in 3.0 mi SE 9.2 mph - 0.06 in Rain Light Rain
7:42 PM 59.0 °F 55.9 °F 90% 29.94 in 2.5 mi SSE 9.2 mph - 0.07 in Rain Light Rain
7:53 PM 59.0 °F 55.9 °F 90% 29.94 in 2.5 mi SE 9.2 mph - 0.08 in Rain Light Rain
8:07 PM 59.0 °F 55.9 °F 90% 29.91 in 4.0 mi ESE 6.9 mph - 0.00 in Rain Light Rain
8:53 PM 59.0 °F 57.0 °F 93% 29.91 in 4.0 mi SSE 13.8 mph 18.4 mph 0.01 in Rain Light Rain
9:53 PM 60.1 °F 57.0 °F 90% 29.86 in 2.5 mi SSE 16.1 mph 26.5 mph 0.02 in Rain Rain
10:01 PM 60.1 °F 57.9 °F 93% 29.85 in 3.0 mi SSE 12.7 mph 26.5 mph 0.00 in Rain Light Rain
10:53 PM 61.0 °F 57.9 °F 90% 29.86 in 10.0 mi SSE 13.8 mph 26.5 mph 0.01 in   Overcast
11:15 PM 62.1 °F 59.0 °F 90% 29.85 in 10.0 mi SSE 11.5 mph 21.9 mph N/A   Overcast
11:53 PM 63.0 °F 60.1 °F 90% 29.85 in 9.0 mi South 15.0 mph 23.0 mph 0.00 in   Overcast